Regional Weather Roundup
Issued by NWS

Home | Current Version | Previous Version | Graphics & Text | Print | Product List | Glossary On
Versions: 1 2 3 4 5 6 7 8 9 10 11 12 13 14 15 16 17 18 19 20 21 22 23 24 25 26 27 28
000
ASUS45 KBOI 181910
RWRID

IDAHO REGIONAL WEATHER ROUNDUP
NATIONAL WEATHER SERVICE BOISE ID
1200 PM MST SUN FEB 18 2018

NOTE: "FAIR" INDICATES FEW OR NO CLOUDS BELOW 12000 FEET
WITH NO SIGNIFICANT WEATHER AND/OR OBSTRUCTIONS TO VISIBILITY

IDZ012-014-182000-
SOUTHWEST IDAHO


CITY           SKY/WX    TMP DP  RH WIND       PRES   REMARKS
BOISE          CLOUDY    44  20  38 W17G30    29.59F
CALDWELL       LGT RAIN  37  27  67 SW24G38   29.63R WCI  26
MOUNTAIN HOME  PTSUNNY   43  22  43 W18       29.60F
$$

IDZ016-017-182000-
SOUTHCENTRAL IDAHO


CITY           SKY/WX    TMP DP  RH WIND       PRES   REMARKS
BURLEY         PTSUNNY   32  27  81 SW9       29.60R WCI  24
JEROME         MOSUNNY   38  24  57 W24G31    29.59F WCI  27
TWIN FALLS     CLOUDY    32  27  81 SW7       29.61S WCI  26
$$

IDZ019>023-182000-
SOUTHEAST IDAHO


CITY           SKY/WX    TMP DP  RH WIND       PRES   REMARKS
IDAHO FALLS    CLOUDY    35  26  69 SW17      29.50F WCI  25
POCATELLO      CLOUDY    35  28  75 SW26G35   29.54F WCI  22
REXBURG        CLOUDY    35  26  69 SW15G23   29.47F WCI  25
$$

IDZ006-010-011-018-031-032-182000-
CENTRAL IDAHO MOUNTAINS


CITY           SKY/WX    TMP DP  RH WIND       PRES   REMARKS
MCCALL         SNOW      23  20  88 W14G25    29.49R VSB 1/4 WCI  11
HAILEY         MOSUNNY   36   9  32 NW10G20   29.51F WCI  28
STANLEY          N/A     26  16  65 N8        29.48F WCI  18
SALMON         PTSUNNY   32  26  78 SE3       29.51F
CHALLIS        MOSUNNY   34  19  54 S5        29.47F WCI  30
$$

IDZ002-004-006-007-026-182000-
NORTHERN IDAHO


CITY           SKY/WX    TMP DP  RH WIND       PRES   REMARKS
LEWISTON       PTSUNNY   40  25  55 NW13      29.62R WCI  32
LOWELL           N/A     36  34  92 CALM      29.62S
COEUR D`ALENE  SNOW      19  14  81 N23       29.66R VSB 1/2 WCI   2
MULLAN PASS    SNOW       5   2  87 VRB3      29.45S VSB 1/4
$$




USA.gov is the U.S. government's official web portal to all federal, state and local government web resources and services.